HF3P-11 Weather Reports


time (UTC)temp
C
wind
direction
speed
KPH
gust
KPH
rain 1hr
cm
rain 24hr
cm
rain mn
cm
humidity
%
barometer
mb
20260508034004 7 32 6.4 12.9 0.00 0.00 0.00 81 1010.6
20260508033504 7 31 6.4 12.9 0.00 0.00 0.00 81 1010.4
20260508032956 7 29 6.4 12.9 0.00 0.00 0.00 81 1010.5
20260508032504 7 32 6.4 12.9 0.00 0.00 0.00 81 1010.7
20260508032003 7 32 4.8 12.9 0.00 0.00 0.00 81 1010.5
20260508030456 7 26 4.8 11.3 0.00 0.00 0.00 81 1010.5
20260508030004 7 30 4.8 11.3 0.00 0.00 0.00 81 1010.6
20260508025456 7 30 4.8 8.0 0.00 0.00 0.00 81 1010.5
20260508025003 7 32 3.2 8.0 0.00 0.00 0.00 81 1010.5
20260508024456 7 31 3.2 6.4 0.00 0.00 0.00 81 1010.6
20260508024004 7 28 3.2 6.4 0.00 0.00 0.00 81 1010.6
20260508023457 7 24 3.2 6.4 0.00 0.00 0.00 81 1010.4
20260508023004 7 23 3.2 8.0 0.00 0.00 0.00 81 1010.7
20260508022457 7 24 4.8 11.3 0.00 0.00 0.00 81 1010.5
20260508022004 7 25 3.2 11.3 0.00 0.00 0.00 81 1010.4
20260508021504 7 31 3.2 6.4 0.00 0.00 0.00 81 1010.5
20260508021004 7 41 3.2 6.4 0.00 0.00 0.00 81 1010.5
20260508020504 7 43 3.2 12.9 0.00 0.00 0.00 81 1010.5
20260508015956 7 40 4.8 12.9 0.00 0.00 0.00 81 1010.3
20260508015505 7 34 6.4 12.9 0.00 0.00 0.00 81 1010.4
20260508014957 7 30 4.8 12.9 0.00 0.00 0.00 82 1010.5
20260508014504 7 31 4.8 11.3 0.00 0.00 0.00 82 1010.3
20260508013957 7 25 4.8 9.7 0.00 0.00 0.00 82 1010.3
20260508013504 7 22 4.8 11.3 0.00 0.00 0.00 82 1010.3
20260508012956 7 24 4.8 11.3 0.00 0.00 0.00 82 1010.4
20260508012457 7 27 6.4 12.9 0.00 0.00 0.00 82 1010.5
20260508012004 7 27 6.4 12.9 0.00 0.00 0.00 82 1010.4
20260508011457 7 25 6.4 12.9 0.00 0.00 0.00 82 1010.4
20260508011004 7 22 4.8 11.3 0.00 0.00 0.00 83 1010.3
20260508010457 7 22 6.4 14.5 0.00 0.00 0.00 82 1010.3
20260508005957 7 23 6.4 14.5 0.00 0.00 0.00 82 1010.4
20260508005504 7 27 4.8 12.9 0.00 0.00 0.00 82 1010.5
20260508004956 7 27 4.8 12.9 0.00 0.00 0.00 82 1010.4
20260508004504 7 26 4.8 12.9 0.00 0.00 0.00 81 1010.4
20260508003957 7 28 3.2 9.7 0.00 0.00 0.00 81 1010.3
20260508003504 7 24 4.8 9.7 0.00 0.00 0.00 81 1010.3
20260508002957 7 24 4.8 9.7 0.00 0.00 0.00 81 1010.2
20260508002505 7 24 4.8 8.0 0.00 0.00 0.00 81 1010.3
20260508001957 7 24 3.2 8.0 0.00 0.00 0.00 81 1010.3
20260508001505 7 24 4.8 11.3 0.00 0.00 0.00 81 1010.4
20260508000957 7 22 4.8 11.3 0.00 0.00 0.00 81 1010.4
20260508000504 7 26 4.8 11.3 0.00 0.00 0.00 81 1010.4
20260507235957 7 30 4.8 11.3 0.00 0.00 0.00 81 1010.3
20260507235505 7 30 4.8 9.7 0.00 0.00 0.00 81 1010.4
20260507234956 7 27 4.8 9.7 0.00 0.00 0.00 82 1010.5
20260507234505 7 24 3.2 9.7 0.00 0.00 0.00 81 1010.4
20260507233957 7 31 3.2 9.7 0.00 0.00 0.00 81 1010.4
20260507233504 7 30 4.8 9.7 0.00 0.00 0.00 80 1010.5
20260507232957 7 33 4.8 9.7 0.00 0.00 0.00 80 1010.5
20260507232504 8 33 4.8 11.3 0.00 0.00 0.00 80 1010.6
20260507231957 8 27 4.8 11.3 0.00 0.00 0.00 79 1010.4
20260507231504 8 29 4.8 9.7 0.00 0.00 0.00 79 1010.4
20260507230957 8 27 4.8 9.7 0.00 0.00 0.00 79 1010.5
20260507230505 8 26 4.8 12.9 0.00 0.00 0.00 80 1010.3
20260507225957 8 32 4.8 12.9 0.00 0.00 0.00 80 1010.5
20260507225504 8 33 4.8 8.0 0.00 0.00 0.00 80 1010.5
20260507224957 8 32 3.2 8.0 0.00 0.00 0.00 81 1010.4
20260507224504 8 31 3.2 8.0 0.00 0.00 0.00 81 1010.4
20260507223957 8 34 3.2 8.0 0.00 0.00 0.00 81 1010.5
20260507223505 8 42 3.2 6.4 0.00 0.00 0.00 81 1010.5
20260507222957 8 43 3.2 6.4 0.00 0.00 0.00 80 1010.5
20260507222457 8 44 4.8 12.9 0.00 0.00 0.00 80 1010.5
20260507221957 8 40 4.8 12.9 0.00 0.00 0.00 79 1010.4
20260507221456 8 41 4.8 11.3 0.00 0.00 0.00 80 1010.4
20260507220957 8 46 6.4 8.0 0.00 0.00 0.00 80 1010.3
20260507220457 8 44 6.4 14.5 0.00 0.00 0.00 80 1010.4
20260507215958 8 44 6.4 14.5 0.00 0.00 0.00 80 1010.4
20260507215505 8 41 4.8 14.5 0.00 0.00 0.00 81 1010.4
20260507214957 8 38 4.8 11.3 0.00 0.00 0.00 82 1010.3
20260507214457 8 39 4.8 11.3 0.00 0.00 0.00 83 1010.2
20260507214004 8 36 3.2 8.0 0.00 0.00 0.00 83 1010.2
20260507213505 8 35 4.8 9.7 0.00 0.00 0.00 83 1010.3
20260507212957 8 38 4.8 11.3 0.00 0.00 0.00 83 1010.3
20260507212504 8 37 4.8 11.3 0.00 0.00 0.00 84 1010.1
20260507211957 8 38 4.8 12.9 0.00 0.00 0.00 84 1010.0
20260507211457 8 43 3.2 12.9 0.00 0.00 0.00 83 1010.1
20260507211004 8 45 3.2 6.4 0.00 0.00 0.00 84 1009.9
20260507210504 8 39 4.8 12.9 0.00 0.00 0.00 84 1009.9
20260507205958 8 32 4.8 12.9 0.00 0.00 0.00 84 1009.8
20260507205505 8 32 4.8 12.9 0.00 0.00 0.00 84 1009.8
20260507204957 8 34 4.8 11.3 0.00 0.00 0.00 84 1009.7
20260507204457 8 30 4.8 11.3 0.00 0.00 0.00 84 1009.6
20260507204005 8 29 3.2 11.3 0.00 0.00 0.00 84 1009.6
20260507203505 8 32 3.2 9.7 0.00 0.00 0.00 84 1009.6
20260507202957 8 32 3.2 9.7 0.00 0.00 0.00 84 1009.4
20260507202457 8 35 4.8 12.9 0.00 0.00 0.00 84 1009.5
20260507202006 8 34 4.8 12.9 0.00 0.00 0.00 84 1009.3
20260507201457 8 29 4.8 12.9 0.00 0.00 0.00 84 1009.3
20260507200957 8 25 4.8 8.0 0.00 0.00 0.00 84 1009.2
20260507200504 8 24 4.8 11.3 0.00 0.00 0.00 84 1009.2
20260507200004 8 30 6.4 12.9 0.00 0.00 0.00 84 1009.2
20260507195458 8 34 6.4 12.9 0.00 0.00 0.00 84 1009.3
20260507195005 8 32 4.8 11.3 0.00 0.00 0.00 84 1009.1
20260507194457 8 32 4.8 12.9 0.00 0.00 0.00 84 1009.2
20260507193957 8 32 4.8 12.9 0.00 0.00 0.00 84 1009.1
20260507193457 8 36 4.8 11.3 0.00 0.00 0.00 83 1009.0
20260507192957 8 34 4.8 14.5 0.00 0.00 0.00 84 1009.1
20260507192457 8 28 4.8 14.5 0.00 0.00 0.00 84 1009.0
20260507191957 9 33 4.8 11.3 0.00 0.00 0.00 84 1009.1
20260507191507 9 41 6.4 12.9 0.00 0.00 0.00 84 1009.1
20260507191005 9 44 8.0 12.9 0.00 0.00 0.00 84 1008.8
20260507190457 9 38 6.4 12.9 0.00 0.00 0.00 84 1009.1
20260507190006 9 29 6.4 12.9 0.00 0.00 0.00 84 1009.0
20260507185505 9 32 6.4 12.9 0.00 0.00 0.00 84 1008.9
20260507184957 9 31 4.8 12.9 0.00 0.00 0.00 84 1008.7
20260507184458 9 31 6.4 12.9 0.00 0.00 0.00 83 1008.6
20260507183956 9 28 6.4 14.5 0.00 0.00 0.00 82 1008.5
20260507183504 9 26 6.4 14.5 0.00 0.00 0.00 82 1008.4
20260507183005 9 24 6.4 14.5 0.00 0.00 0.00 82 1008.7
20260507182457 9 25 6.4 12.9 0.00 0.00 0.00 82 1008.5
20260507181957 9 28 4.8 12.9 0.00 0.00 0.00 82 1008.7
20260507181506 9 30 4.8 11.3 0.00 0.00 0.00 81 1008.7
20260507181005 9 27 6.4 11.3 0.00 0.00 0.00 81 1008.6
20260507180505 9 22 8.0 16.1 0.00 0.00 0.00 81 1008.5
20260507175957 9 24 8.0 16.1 0.00 0.00 0.00 81 1008.2
20260507175457 9 27 8.0 14.5 0.00 0.00 0.00 81 1008.0
20260507174957 10 26 8.0 14.5 0.00 0.00 0.00 80 1008.1
20260507174506 10 26 8.0 14.5 0.00 0.00 0.00 80 1007.9
20260507174005 10 27 6.4 14.5 0.00 0.00 0.00 81 1007.9
20260507173457 10 25 6.4 14.5 0.00 0.00 0.00 80 1007.9
20260507172957 10 32 6.4 12.9 0.00 0.00 0.00 80 1007.8
20260507172505 10 31 6.4 14.5 0.00 0.00 0.00 80 1007.9
20260507172004 10 24 6.4 16.1 0.00 0.00 0.00 80 1007.8
20260507171457 10 24 6.4 16.1 0.00 0.00 0.00 80 1007.8
20260507171005 10 24 6.4 16.1 0.00 0.00 0.00 79 1007.9
20260507170457 10 27 6.4 14.5 0.00 0.00 0.00 79 1007.7
20260507170005 10 27 8.0 17.7 0.00 0.00 0.00 79 1007.5
20260507165505 10 29 8.0 17.7 0.00 0.00 0.00 79 1007.4
20260507165005 10 27 9.7 17.7 0.00 0.00 0.00 79 1007.4
20260507164457 10 26 8.0 17.7 0.00 0.00 0.00 80 1007.3
20260507163957 10 31 6.4 12.9 0.00 0.00 0.00 80 1007.4
20260507163458 10 33 6.4 12.9 0.00 0.00 0.00 80 1007.4
20260507163005 10 29 6.4 14.5 0.00 0.00 0.00 80 1007.4
20260507162505 10 26 6.4 16.1 0.00 0.00 0.00 80 1007.3
20260507162005 10 30 6.4 16.1 0.00 0.00 0.00 80 1007.4
20260507161505 10 29 6.4 12.9 0.00 0.00 0.00 81 1007.4
20260507161006 10 23 8.0 12.9 0.00 0.00 0.00 80 1007.4
20260507160505 10 28 9.7 17.7 0.00 0.00 0.00 80 1007.4
20260507155957 10 36 8.0 19.3 0.00 0.00 0.00 80 1007.4
20260507155457 10 36 8.0 19.3 0.00 0.00 0.00 80 1007.4
20260507154958 10 29 6.4 16.1 0.00 0.00 0.00 80 1007.4
20260507154457 10 27 6.4 14.5 0.00 0.00 0.00 82 1007.5
20260507154005 10 33 6.4 14.5 0.00 0.00 0.00 81 1007.5
20260507153457 10 32 6.4 14.5 0.00 0.00 0.00 82 1007.4
20260507152957 9 26 8.0 16.1 0.00 0.00 0.00 82 1007.4
20260507152504 9 26 8.0 16.1 0.00 0.00 0.00 81 1007.4
20260507151958 9 26 8.0 17.7 0.00 0.00 0.00 81 1007.4
20260507151505 10 30 6.4 17.7 0.00 0.00 0.00 82 1007.6
20260507150958 10 42 6.4 9.7 0.00 0.00 0.00 82 1007.4
20260507150505 9 38 6.4 12.9 0.00 0.00 0.00 83 1007.4
20260507145958 9 25 6.4 12.9 0.00 0.00 0.00 83 1007.5
20260507145504 9 13 6.4 12.9 0.00 0.00 0.00 83 1007.4
20260507145005 9 21 4.8 11.3 0.00 0.00 0.00 84 1007.4
20260507144457 9 27 4.8 12.9 0.00 0.00 0.00 85 1007.4
20260507144005 9 25 6.4 12.9 0.00 0.00 0.00 84 1007.4
20260507143458 9 30 6.4 12.9 0.00 0.00 0.00 84 1007.4
20260507143005 9 38 6.4 12.9 0.00 0.00 0.00 83 1007.4
20260507142457 9 36 6.4 12.9 0.00 0.00 0.00 83 1007.4
20260507141957 9 35 6.4 14.5 0.00 0.00 0.00 84 1007.4
20260507141457 9 32 6.4 14.5 0.00 0.00 0.00 83 1007.4
20260507140957 9 22 6.4 12.9 0.00 0.00 0.00 83 1007.5
20260507140504 9 26 8.0 17.7 0.00 0.00 0.00 84 1007.3
20260507135957 9 32 8.0 17.7 0.00 0.00 0.00 84 1007.2
20260507135505 8 25 8.0 16.1 0.00 0.00 0.00 84 1007.2
20260507134959 8 8 6.4 12.9 0.00 0.00 0.00 84 1007.3
20260507134457 8 15 6.4 14.5 0.00 0.00 0.00 84 1007.3
20260507134005 8 23 6.4 14.5 0.00 0.00 0.00 85 1007.3
20260507133458 8 25 6.4 14.5 0.00 0.00 0.00 85 1007.2
20260507133005 8 26 6.4 12.9 0.00 0.00 0.00 85 1007.3
20260507132458 8 24 6.4 12.9 0.00 0.00 0.00 85 1007.3
20260507132005 8 30 4.8 12.9 0.00 0.00 0.00 85 1007.2
20260507131458 8 27 4.8 9.7 0.00 0.00 0.00 87 1007.4
20260507131005 8 21 6.4 9.7 0.00 0.00 0.00 86 1007.3
20260507130457 8 19 6.4 11.3 0.00 0.00 0.00 87 1007.1
20260507130005 8 1 6.4 17.7 0.00 0.00 0.00 87 1007.1
20260507125457 8 9 8.0 17.7 0.00 0.00 0.00 87 1007.1
20260507125005 8 12 8.0 17.7 0.00 0.00 0.00 88 1006.9
20260507124457 8 1 6.4 17.7 0.00 0.00 0.00 88 1007.0
20260507124004 8 8 6.4 12.9 0.00 0.00 0.00 88 1007.0
20260507123457 8 8 4.8 12.9 0.00 0.00 0.00 89 1007.0
20260507123006 8 15 6.4 16.1 0.00 0.00 0.00 89 1006.9
20260507122458 8 25 6.4 16.1 0.00 0.00 0.00 89 1007.0
20260507122005 8 26 4.8 16.1 0.00 0.00 0.00 90 1006.7
20260507121458 8 11 6.4 12.9 0.00 0.00 0.00 90 1007.0
20260507121005 8 1 6.4 12.9 0.00 0.00 0.00 90 1006.9
20260507120458 8 10 8.0 14.5 0.00 0.00 0.00 89 1006.6
20260507120005 8 10 8.0 14.5 0.00 0.00 0.00 89 1006.6
20260507115458 8 7 6.4 14.5 0.00 0.00 0.00 89 1006.7
20260507115005 8 29 6.4 16.1 0.00 0.00 0.00 89 1006.4
20260507114458 8 40 8.0 16.1 0.00 0.00 0.00 89 1006.4
20260507114005 8 26 8.0 17.7 0.00 0.00 0.00 89 1006.3
20260507113457 8 22 6.4 17.7 0.00 0.00 0.00 89 1006.3
20260507113005 8 33 6.4 17.7 0.00 0.00 0.00 89 1006.4
20260507112458 8 33 6.4 12.9 0.00 0.00 0.00 88 1006.3
20260507112006 8 34 6.4 12.9 0.00 0.00 0.00 88 1006.3
20260507111457 8 36 6.4 12.9 0.00 0.00 0.00 88 1006.3
20260507111004 8 41 6.4 11.3 0.00 0.00 0.00 87 1006.3
20260507110458 8 43 6.4 12.9 0.00 0.00 0.00 87 1006.2
20260507110005 8 39 6.4 14.5 0.00 0.00 0.00 87 1006.3
20260507105458 8 35 8.0 14.5 0.00 0.00 0.00 87 1006.3
20260507104958 8 38 6.4 14.5 0.00 0.00 0.00 87 1006.1
20260507104506 8 39 6.4 14.5 0.00 0.00 0.00 88 1006.4
20260507103958 8 33 6.4 12.9 0.00 0.00 0.00 89 1006.2
20260507103505 8 36 8.0 17.7 0.00 0.00 0.00 89 1006.2
20260507102957 8 31 8.0 17.7 0.00 0.00 0.00 89 1006.1
20260507102505 8 20 6.4 14.5 0.00 0.00 0.00 90 1006.1
20260507101957 8 25 6.4 14.5 0.00 0.00 0.00 90 1006.0
20260507101504 8 26 6.4 12.9 0.00 0.00 0.00 91 1006.0
20260507100957 8 25 4.8 12.9 0.00 0.00 0.00 91 1006.0
20260507100505 8 30 6.4 14.5 0.00 0.00 0.00 91 1005.8
20260507095958 8 35 6.4 14.5 0.00 0.00 0.00 91 1005.5
20260507095504 8 38 6.4 14.5 0.00 0.00 0.00 89 1005.5
20260507094958 8 42 8.0 16.1 0.00 0.00 0.00 89 1005.4
20260507094458 8 39 8.0 17.7 0.00 0.00 0.00 89 1005.4
20260507094005 8 36 8.0 17.7 0.00 0.00 0.00 89 1005.5
20260507093458 8 34 8.0 17.7 0.00 0.00 0.00 89 1005.3
20260507093005 8 33 8.0 17.7 0.00 0.00 0.00 88 1005.3
20260507092458 8 36 8.0 19.3 0.00 0.00 0.00 88 1005.1
20260507091957 8 36 9.7 19.3 0.00 0.00 0.00 87 1005.2
20260507091505 8 39 8.0 17.7 0.00 0.00 0.00 87 1005.2
20260507091004 8 45 8.0 12.9 0.00 0.00 0.00 87 1005.1
20260507090505 8 41 8.0 14.5 0.00 0.00 0.00 89 1005.0
20260507090006 8 40 8.0 14.5 0.00 0.00 0.00 89 1005.1
20260507085506 8 42 8.0 17.7 0.00 0.00 0.00 89 1005.0
20260507085005 7 39 8.0 17.7 0.00 0.00 0.00 89 1005.0
20260507084505 8 32 8.0 17.7 0.00 0.00 0.00 89 1004.8
20260507084005 7 35 8.0 17.7 0.00 0.00 0.00 89 1004.9
20260507083505 7 39 8.0 17.7 0.00 0.00 0.00 89 1005.0
20260507083006 7 37 9.7 17.7 0.00 0.00 0.00 89 1004.9
20260507082458 7 36 8.0 17.7 0.00 0.00 0.00 90 1004.9
20260507081958 7 38 9.7 17.7 0.00 0.00 0.00 90 1004.9
20260507081505 7 37 11.3 17.7 0.00 0.00 0.00 90 1004.6
20260507080958 7 28 12.9 17.7 0.00 0.00 0.00 90 1004.6
20260507080506 7 29 11.3 17.7 0.00 0.00 0.00 90 1004.6
20260507075958 7 43 8.0 17.7 0.00 0.00 0.00 90 1004.5
20260507075506 7 44 8.0 16.1 0.00 0.00 0.00 90 1004.3
20260507074958 7 39 8.0 14.5 0.00 0.03 0.00 91 1004.5
20260507074458 7 39 8.0 17.7 0.00 0.03 0.00 91 1004.3
20260507074005 7 34 6.4 17.7 0.00 0.03 0.00 92 1004.1
20260507073458 7 28 6.4 14.5 0.00 0.03 0.00 92 1004.3
20260507073006 7 32 8.0 14.5 0.00 0.03 0.00 92 1004.2
20260507072458 7 34 8.0 14.5 0.00 0.03 0.00 92 1004.2
20260507072006 7 41 8.0 14.5 0.00 0.03 0.00 92 1004.1
20260507071458 7 39 9.7 17.7 0.00 0.03 0.00 93 1004.3
20260507071005 7 27 11.3 17.7 0.00 0.03 0.00 93 1004.2
20260507070458 7 19 9.7 16.1 0.00 0.03 0.00 94 1003.7
20260507070010 7 30 8.0 17.7 0.00 0.03 0.00 94 1003.9
20260507065457 7 40 9.7 19.3 0.00 0.03 0.00 94 1003.9
20260507065006 7 38 8.0 19.3 0.00 0.03 0.00 94 1003.9
20260507064458 7 43 8.0 16.1 0.00 0.03 0.00 95 1003.6
20260507064005 7 34 8.0 20.9 0.00 0.03 0.00 95 1003.5
20260507063505 7 29 9.7 20.9 0.00 0.03 0.00 95 1003.5
20260507063006 7 26 9.7 20.9 0.00 0.03 0.00 95 1003.5
20260507062506 7 12 9.7 20.9 0.00 0.03 0.00 96 1003.5
20260507061958 7 30 8.0 17.7 0.00 0.03 0.00 96 1003.5
20260507061506 7 30 6.4 14.5 0.00 0.03 0.00 96 1003.6
20260507060957 7 8 6.4 12.9 0.00 0.03 0.00 97 1003.5
20260507060505 7 14 6.4 16.1 0.00 0.03 0.00 97 1003.4
20260507055958 7 32 8.0 16.1 0.00 0.03 0.00 97 1003.4
20260507055506 7 23 8.0 17.7 0.00 0.03 0.00 97 1003.5
20260507054958 7 348 8.0 17.7 0.00 0.03 0.00 97 1003.5
20260507054505 7 351 9.7 17.7 0.00 0.03 0.00 97 1003.4
20260507053958 7 22 8.0 17.7 0.00 0.03 0.00 100 1003.4
20260507053458 7 35 8.0 17.7 0.00 0.03 0.00 100 1003.1
20260507052958 7 45 8.0 19.3 0.00 0.03 0.00 100 1003.1
20260507052458 6 46 9.7 19.3 0.00 0.03 0.00 99 1002.9
20260507052006 6 46 11.3 20.9 0.00 0.03 0.00 100 1002.8
20260507051458 6 42 11.3 20.9 0.00 0.03 0.00 100 1002.9
20260507051006 7 42 9.7 17.7 0.00 0.03 0.00 99 1003.0
20260507050458 7 39 9.7 20.9 0.00 0.03 0.00 99 1002.9
20260507050006 6 33 9.7 20.9 0.00 0.03 0.00 99 1002.8
20260507045459 7 29 9.7 19.3 0.00 0.03 0.00 99 1002.8
20260507044959 7 28 9.7 19.3 0.00 0.03 0.00 99 1002.9
20260507044458 6 25 9.7 17.7 0.00 0.03 0.00 99 1002.9
20260507043957 7 13 8.0 17.7 0.00 0.03 0.00 99 1002.9
20260507043506 7 36 6.4 14.5 0.00 0.03 0.00 99 1002.9
20260507043007 7 29 8.0 17.7 0.00 0.03 0.00 99 1002.9
20260507042507 7 30 9.7 17.7 0.00 0.03 0.00 99 1002.8
20260507042009 7 28 8.0 17.7 0.00 0.03 0.00 99 1002.8
20260507041459 7 356 8.0 17.7 0.00 0.03 0.00 99 1002.4
20260507041006 6 343 9.7 17.7 0.00 0.03 0.00 99 1002.5
20260507040507 7 346 9.7 19.3 0.00 0.03 0.00 99 1002.4
20260507035958 6 20 9.7 20.9 0.00 0.03 0.00 99 1002.3
20260507035458 7 24 8.0 20.9 0.00 0.03 0.00 99 1002.0
20260507034959 7 338 6.4 16.1 0.00 0.03 0.00 99 1002.0
20260507034506 7 339 8.0 16.1 0.00 0.03 0.00 99 1001.8